Zurück zum Katalog

STARLINK-36669

AktivKommunikationSSO
NORAD 68675·PAYLOAD·🇺🇸 United States

Gestartet Apr 11, 2026 von Vandenberg Space Force Base

Loading…

Nächste Überflüge (nächste 24 Stunden)

TLE

AktuellSource: CelesTrak SupGP

Epoche: Sep 14, 2026, 21:31 UTC

1 68675C 26077P   26257.89701389  .00012012  00000+0  37302-3 0  2571
2 68675  97.2847 127.8774 0001970  94.3660 304.0060 15.33418954    19

Verfolge STARLINK-36669 in Echtzeit mit AllMySat

Download on the App Store